CCA8505 ZSHC-ZLXY

Flight info

Callsign CCA8505
Flight time N/A
Altitude 34100
Route NIVIK W135 DOGVI W545 VEMEX W163 HFE B208 ZHO B208 AGVUR W87 GODON W43 SAVPA W696 LOVRA
Aircraft A321/M-SDE3FGHIRWY/LB1

Departure

Time 2026-04-27 07:20
Airport Hangzhou Xiaoshan International Airport (ZSHC)

Arrival

Time N/A
Airport Xi'an Xianyang International Airport (ZLXY)
Time Latitude Longitude Altitude Speed Heading
2026-04-27 06:43 30.23578 120.43521 41 ft 0 kts 243°
2026-04-27 07:05 30.23580 120.43524 40 ft 2 kts 243°
2026-04-27 07:05 30.23587 120.43540 40 ft 2 kts 242°
2026-04-27 07:05 30.23591 120.43550 39 ft 0 kts 243°
2026-04-27 07:05 30.23599 120.43565 39 ft 2 kts 228°
2026-04-27 07:06 30.23609 120.43576 39 ft 2 kts 216°
2026-04-27 07:06 30.23623 120.43585 39 ft 2 kts 201°
2026-04-27 07:06 30.23637 120.43590 39 ft 2 kts 188°
2026-04-27 07:06 30.23652 120.43591 39 ft 2 kts 174°
2026-04-27 07:07 30.23667 120.43587 39 ft 2 kts 161°
2026-04-27 07:07 30.23675 120.43584 38 ft 1 kts 153°
2026-04-27 07:07 30.23679 120.43581 38 ft 0 kts 152°
2026-04-27 07:10 30.23676 120.43583 38 ft 0 kts 152°
2026-04-27 07:10 30.23670 120.43587 38 ft 1 kts 152°
2026-04-27 07:10 30.23661 120.43592 38 ft 2 kts 152°
2026-04-27 07:10 30.23639 120.43605 38 ft 4 kts 153°
2026-04-27 07:11 30.23601 120.43627 38 ft 7 kts 153°
2026-04-27 07:11 30.23547 120.43658 37 ft 9 kts 153°
2026-04-27 07:11 30.23481 120.43697 37 ft 11 kts 153°
2026-04-27 07:11 30.23406 120.43742 37 ft 12 kts 152°
2026-04-27 07:12 30.23342 120.43777 37 ft 9 kts 162°
2026-04-27 07:12 30.23281 120.43750 37 ft 10 kts 234°
2026-04-27 07:12 30.23243 120.43670 37 ft 12 kts 243°
2026-04-27 07:12 30.23205 120.43583 38 ft 12 kts 243°
2026-04-27 07:13 30.23162 120.43485 37 ft 14 kts 243°
2026-04-27 07:13 30.23116 120.43381 37 ft 15 kts 243°
2026-04-27 07:13 30.23065 120.43265 35 ft 17 kts 243°
2026-04-27 07:13 30.23009 120.43140 34 ft 18 kts 243°
2026-04-27 07:14 30.22952 120.43009 34 ft 18 kts 243°
2026-04-27 07:14 30.22893 120.42877 34 ft 18 kts 243°
2026-04-27 07:14 30.22835 120.42747 36 ft 17 kts 243°
2026-04-27 07:14 30.22780 120.42622 36 ft 17 kts 243°
2026-04-27 07:15 30.22724 120.42494 37 ft 17 kts 243°
2026-04-27 07:15 30.22668 120.42369 37 ft 17 kts 243°
2026-04-27 07:15 30.22611 120.42240 37 ft 18 kts 243°
2026-04-27 07:15 30.22554 120.42110 37 ft 18 kts 243°
2026-04-27 07:16 30.22496 120.41980 37 ft 18 kts 243°
2026-04-27 07:16 30.22441 120.41855 40 ft 17 kts 243°
2026-04-27 07:16 30.22393 120.41747 40 ft 9 kts 240°
2026-04-27 07:16 30.22339 120.41718 40 ft 8 kts 167°
2026-04-27 07:17 30.22327 120.41723 40 ft 1 kts 155°
2026-04-27 07:17 30.22312 120.41731 40 ft 3 kts 154°
2026-04-27 07:17 30.22285 120.41746 40 ft 5 kts 153°
2026-04-27 07:17 30.22249 120.41770 40 ft 7 kts 139°
2026-04-27 07:18 30.22236 120.41832 39 ft 10 kts 64°
2026-04-27 07:18 30.22261 120.41885 38 ft 0 kts 63°
2026-04-27 07:18 30.22265 120.41894 38 ft 2 kts 63°
2026-04-27 07:18 30.22276 120.41919 38 ft 4 kts 63°
2026-04-27 07:19 30.22372 120.42133 37 ft 65 kts 62°
2026-04-27 07:19 30.22679 120.42831 34 ft 128 kts 62°
2026-04-27 07:19 30.23173 120.43948 41 ft 179 kts 63°
2026-04-27 07:19 30.23754 120.45274 417 ft 188 kts 63°
2026-04-27 07:20 30.24297 120.46608 1160 ft 181 kts 68°
2026-04-27 07:20 30.24507 120.47996 1758 ft 182 kts 97°
2026-04-27 07:20 30.24199 120.49404 2293 ft 182 kts 106°
2026-04-27 07:20 30.23859 120.50809 2798 ft 183 kts 104°
2026-04-27 07:21 30.23574 120.52248 3304 ft 185 kts 101°
2026-04-27 07:21 30.23335 120.53746 3684 ft 197 kts 98°
2026-04-27 07:21 30.23115 120.55366 4007 ft 213 kts 97°
2026-04-27 07:21 30.22699 120.57053 4311 ft 231 kts 120°
2026-04-27 07:22 30.21468 120.58365 4571 ft 253 kts 152°
2026-04-27 07:22 30.19844 120.59270 4988 ft 270 kts 154°
2026-04-27 07:22 30.18097 120.60203 5591 ft 280 kts 160°
2026-04-27 07:22 30.16186 120.60482 6314 ft 283 kts 189°
2026-04-27 07:23 30.14386 120.59679 7077 ft 282 kts 216°
2026-04-27 07:23 30.13081 120.58024 7597 ft 281 kts 242°
2026-04-27 07:23 30.12207 120.55997 7861 ft 281 kts 245°
2026-04-27 07:23 30.11356 120.53979 7876 ft 280 kts 244°
2026-04-27 07:24 30.10493 120.51972 7879 ft 280 kts 244°
2026-04-27 07:24 30.09612 120.49959 7880 ft 280 kts 244°
2026-04-27 07:24 30.08719 120.47935 7882 ft 281 kts 244°
2026-04-27 07:24 30.07827 120.45927 7883 ft 280 kts 244°
2026-04-27 07:25 30.06940 120.43932 7883 ft 280 kts 244°
2026-04-27 07:25 30.06193 120.41878 7866 ft 279 kts 260°
2026-04-27 07:25 30.06295 120.39690 7896 ft 278 kts 288°
2026-04-27 07:25 30.07284 120.37766 7882 ft 278 kts 314°
2026-04-27 07:26 30.08887 120.36521 7880 ft 280 kts 333°
2026-04-27 07:26 30.10627 120.35535 7879 ft 280 kts 333°
2026-04-27 07:26 30.12383 120.34525 7868 ft 279 kts 332°
2026-04-27 07:26 30.14110 120.33520 7872 ft 279 kts 332°
2026-04-27 07:27 30.15844 120.32505 7876 ft 279 kts 332°
2026-04-27 07:27 30.17583 120.31482 7879 ft 278 kts 332°
2026-04-27 07:27 30.19305 120.30468 7881 ft 278 kts 332°
2026-04-27 07:27 30.21032 120.29448 7879 ft 278 kts 332°
2026-04-27 07:28 30.22755 120.28429 7881 ft 278 kts 332°
2026-04-27 07:28 30.24493 120.27405 7881 ft 278 kts 332°
2026-04-27 07:28 30.26223 120.26382 7882 ft 278 kts 332°
2026-04-27 07:28 30.27936 120.25369 7882 ft 277 kts 331°
2026-04-27 07:29 30.29648 120.24353 7882 ft 277 kts 332°
2026-04-27 07:29 30.31369 120.23334 7883 ft 277 kts 331°
2026-04-27 07:29 30.33116 120.22337 7891 ft 277 kts 334°
2026-04-27 07:29 30.34876 120.21443 7875 ft 277 kts 335°
2026-04-27 07:30 30.36636 120.20562 7878 ft 278 kts 335°
2026-04-27 07:30 30.38434 120.19664 7880 ft 278 kts 335°
2026-04-27 07:30 30.40208 120.18776 7909 ft 278 kts 335°
2026-04-27 07:30 30.41991 120.17883 7920 ft 278 kts 335°
2026-04-27 07:31 30.43768 120.16990 7916 ft 278 kts 335°
2026-04-27 07:31 30.45566 120.16087 7898 ft 278 kts 335°
2026-04-27 07:31 30.47315 120.15185 7877 ft 277 kts 332°
2026-04-27 07:31 30.49014 120.14085 7876 ft 279 kts 326°
2026-04-27 07:32 30.50636 120.12779 8266 ft 285 kts 323°
2026-04-27 07:32 30.52218 120.11446 9190 ft 284 kts 322°
2026-04-27 07:32 30.53790 120.10113 10036 ft 283 kts 322°
2026-04-27 07:32 30.55403 120.08748 10690 ft 291 kts 322°
2026-04-27 07:33 30.57075 120.07328 11041 ft 308 kts 321°
2026-04-27 07:33 30.58850 120.05822 11374 ft 326 kts 321°
2026-04-27 07:33 30.60750 120.04210 11686 ft 344 kts 321°
2026-04-27 07:33 30.62710 120.02548 12090 ft 357 kts 321°
2026-04-27 07:34 30.64734 120.00833 12750 ft 361 kts 321°
2026-04-27 07:34 30.66758 119.99120 13441 ft 364 kts 321°
2026-04-27 07:34 30.68825 119.97366 14128 ft 367 kts 320°
2026-04-27 07:34 30.70891 119.95612 14813 ft 369 kts 320°
2026-04-27 07:35 30.72937 119.93874 15520 ft 370 kts 320°
2026-04-27 07:35 30.75024 119.92100 16161 ft 373 kts 319°
2026-04-27 07:35 30.77143 119.90296 16790 ft 375 kts 319°
2026-04-27 07:35 30.79232 119.88510 17254 ft 382 kts 318°
2026-04-27 07:36 30.81418 119.86634 17744 ft 387 kts 318°
2026-04-27 07:36 30.83567 119.84784 18360 ft 388 kts 319°
2026-04-27 07:36 30.85741 119.82916 18964 ft 390 kts 319°
2026-04-27 07:36 30.87924 119.81038 19497 ft 392 kts 319°
2026-04-27 07:37 30.90131 119.79140 20035 ft 395 kts 319°
2026-04-27 07:37 30.92336 119.77241 20519 ft 398 kts 319°
2026-04-27 07:37 30.94591 119.75301 21006 ft 401 kts 319°
2026-04-27 07:37 30.96843 119.73357 21498 ft 404 kts 319°
2026-04-27 07:38 30.99087 119.71425 22022 ft 405 kts 319°
2026-04-27 07:38 31.01363 119.69462 22500 ft 407 kts 319°
2026-04-27 07:38 31.03640 119.67497 22972 ft 409 kts 319°
2026-04-27 07:38 31.05921 119.65527 23425 ft 411 kts 319°
2026-04-27 07:39 31.08243 119.63523 23874 ft 414 kts 319°
2026-04-27 07:39 31.10574 119.61507 24306 ft 416 kts 319°
2026-04-27 07:39 31.12879 119.59513 24722 ft 418 kts 319°
2026-04-27 07:39 31.15212 119.57488 25127 ft 420 kts 319°
2026-04-27 07:40 31.17580 119.55436 25531 ft 422 kts 319°
2026-04-27 07:40 31.19918 119.53409 25904 ft 423 kts 319°
2026-04-27 07:40 31.22296 119.51346 26244 ft 426 kts 319°
2026-04-27 07:40 31.24671 119.49290 26553 ft 428 kts 319°
2026-04-27 07:41 31.27068 119.47210 26955 ft 428 kts 319°
2026-04-27 07:41 31.29463 119.45132 27441 ft 426 kts 319°
2026-04-27 07:41 31.31836 119.43072 27898 ft 425 kts 319°
2026-04-27 07:41 31.34223 119.40995 28356 ft 423 kts 318°
2026-04-27 07:42 31.36551 119.38969 28816 ft 421 kts 318°
2026-04-27 07:42 31.38889 119.36932 29280 ft 419 kts 318°
2026-04-27 07:42 31.41235 119.34885 29740 ft 417 kts 317°
2026-04-27 07:42 31.43525 119.32880 30205 ft 414 kts 317°
2026-04-27 07:43 31.45836 119.30859 30627 ft 413 kts 317°
2026-04-27 07:43 31.48128 119.28855 31079 ft 411 kts 317°
2026-04-27 07:43 31.50435 119.26839 31501 ft 410 kts 317°
2026-04-27 07:43 31.52709 119.24849 31886 ft 408 kts 317°
2026-04-27 07:44 31.54976 119.22865 32247 ft 407 kts 317°
2026-04-27 07:44 31.57233 119.20881 32561 ft 407 kts 317°
2026-04-27 07:44 31.59469 119.18900 32800 ft 408 kts 317°
2026-04-27 07:44 31.61750 119.16871 33085 ft 408 kts 317°
2026-04-27 07:45 31.63990 119.14852 33354 ft 407 kts 316°
2026-04-27 07:45 31.66165 119.12711 33639 ft 406 kts 314°
2026-04-27 07:45 31.68276 119.10545 33920 ft 405 kts 314°
2026-04-27 07:46 31.72520 119.06195 33994 ft 407 kts 314°
2026-04-27 07:46 31.76655 119.01721 33975 ft 402 kts 308°
2026-04-27 07:47 31.80100 118.96626 33983 ft 397 kts 300°
2026-04-27 07:47 31.82608 118.90913 33983 ft 392 kts 288°
2026-04-27 07:48 31.83841 118.84724 33966 ft 392 kts 276°
2026-04-27 07:48 31.83790 118.78339 33974 ft 393 kts 267°
2026-04-27 07:49 31.83264 118.71953 33975 ft 395 kts 266°
2026-04-27 07:49 31.82709 118.65534 33975 ft 396 kts 266°
2026-04-27 07:50 31.82141 118.59124 33965 ft 395 kts 266°
2026-04-27 07:50 31.81565 118.52715 33970 ft 394 kts 266°
2026-04-27 07:51 31.80987 118.46298 33972 ft 395 kts 266°
2026-04-27 07:51 31.80404 118.39897 33951 ft 395 kts 266°
2026-04-27 07:52 31.79817 118.33491 33965 ft 397 kts 266°
2026-04-27 07:52 31.79464 118.27055 33962 ft 395 kts 270°
2026-04-27 07:53 31.79333 118.20629 33959 ft 392 kts 270°
2026-04-27 07:53 31.79204 118.14257 33958 ft 393 kts 270°
2026-04-27 07:54 31.79076 118.07861 33954 ft 394 kts 270°
2026-04-27 07:54 31.78973 118.01440 33967 ft 394 kts 270°
2026-04-27 07:55 31.78869 117.94991 33957 ft 394 kts 271°
2026-04-27 07:55 31.78760 117.88590 33972 ft 394 kts 270°
2026-04-27 07:56 31.78646 117.82188 33960 ft 393 kts 271°
2026-04-27 07:56 31.78529 117.75772 33960 ft 394 kts 270°
2026-04-27 07:57 31.78410 117.69374 33961 ft 393 kts 270°
2026-04-27 07:57 31.78273 117.62961 33960 ft 393 kts 270°
2026-04-27 07:58 31.78131 117.56577 33954 ft 393 kts 271°
2026-04-27 07:58 31.77984 117.50173 33955 ft 393 kts 270°
2026-04-27 07:59 31.77838 117.43811 33946 ft 392 kts 270°
2026-04-27 07:59 31.78509 117.34322 33953 ft 390 kts 283°
2026-04-27 08:00 31.80287 117.28264 33953 ft 393 kts 292°
2026-04-27 08:00 31.83063 117.22741 33951 ft 398 kts 303°
2026-04-27 08:01 31.86564 117.17702 33962 ft 398 kts 306°
2026-04-27 08:01 31.90125 117.12736 34000 ft 398 kts 306°
2026-04-27 08:02 31.93688 117.07796 34011 ft 397 kts 306°
2026-04-27 08:02 31.97269 117.02826 34001 ft 397 kts 306°
2026-04-27 08:03 32.00847 116.97871 34004 ft 397 kts 306°
2026-04-27 08:03 32.04406 116.92945 34011 ft 398 kts 306°
2026-04-27 08:04 32.07995 116.87970 34006 ft 397 kts 306°
2026-04-27 08:04 32.11556 116.83014 34014 ft 396 kts 306°
2026-04-27 08:05 32.15103 116.78073 34004 ft 396 kts 306°
2026-04-27 08:05 32.18660 116.73119 33956 ft 397 kts 306°
2026-04-27 08:06 32.22194 116.68078 33962 ft 397 kts 305°
2026-04-27 08:06 32.25681 116.63057 33958 ft 398 kts 304°
2026-04-27 08:07 32.29178 116.58006 33968 ft 399 kts 305°
2026-04-27 08:07 32.32688 116.52939 33957 ft 397 kts 304°
2026-04-27 08:08 32.36183 116.47892 33962 ft 398 kts 304°
2026-04-27 08:08 32.39684 116.42819 33962 ft 398 kts 304°
2026-04-27 08:09 32.43173 116.37762 33954 ft 398 kts 304°
2026-04-27 08:09 32.46083 116.33534 33958 ft 400 kts 304°